Year,Month,Day,Hour,Minute,Value (Times are PST for temperature in C)
2018,08,08,00,00,19.90
2018,08,08,00,01,19.90
2018,08,08,00,02,19.90
2018,08,08,00,03,19.90
2018,08,08,00,04,19.80
2018,08,08,00,05,19.80
2018,08,08,00,06,19.80
2018,08,08,00,07,19.80
2018,08,08,00,08,19.80
2018,08,08,00,09,19.80
2018,08,08,00,10,19.80
2018,08,08,00,11,19.80
2018,08,08,00,12,19.80
2018,08,08,00,13,19.80
2018,08,08,00,14,19.80
2018,08,08,00,15,19.80
2018,08,08,00,16,19.70
2018,08,08,00,17,19.70
2018,08,08,00,18,19.70
2018,08,08,00,19,19.70
2018,08,08,00,20,19.60
2018,08,08,00,21,19.60
2018,08,08,00,22,19.60
2018,08,08,00,23,19.50
2018,08,08,00,24,19.50
2018,08,08,00,25,19.50
2018,08,08,00,26,19.40
2018,08,08,00,27,19.40
2018,08,08,00,28,19.40
2018,08,08,00,29,19.40
2018,08,08,00,30,19.40
2018,08,08,00,31,19.40
2018,08,08,00,32,19.40
2018,08,08,00,33,19.40
2018,08,08,00,34,19.40
2018,08,08,00,35,19.40
2018,08,08,00,36,19.40
2018,08,08,00,37,19.40
2018,08,08,00,38,19.40
2018,08,08,00,39,19.40
2018,08,08,00,40,19.30
2018,08,08,00,41,19.30
2018,08,08,00,42,19.30
2018,08,08,00,43,19.30
2018,08,08,00,44,19.30
2018,08,08,00,45,19.20
2018,08,08,00,46,19.20
2018,08,08,00,47,19.20
2018,08,08,00,48,19.20
2018,08,08,00,49,19.20
2018,08,08,00,50,19.20
2018,08,08,00,51,19.20
2018,08,08,00,52,19.20
2018,08,08,00,53,19.20
2018,08,08,00,54,19.20
2018,08,08,00,55,19.20
2018,08,08,00,56,19.20
2018,08,08,00,57,19.20
2018,08,08,00,58,19.30
2018,08,08,00,59,19.20
2018,08,08,01,00,19.30
2018,08,08,01,01,19.30
2018,08,08,01,02,19.20
2018,08,08,01,03,19.20
2018,08,08,01,04,19.20
2018,08,08,01,05,19.20
2018,08,08,01,06,19.20
2018,08,08,01,07,19.20
2018,08,08,01,08,19.20
2018,08,08,01,09,19.20
2018,08,08,01,10,19.20
2018,08,08,01,11,19.20
2018,08,08,01,12,19.20
2018,08,08,01,13,19.20
2018,08,08,01,14,19.20
2018,08,08,01,15,19.10
2018,08,08,01,16,19.10
2018,08,08,01,17,19.10
2018,08,08,01,18,19.10
2018,08,08,01,19,19.10
2018,08,08,01,20,19.10
2018,08,08,01,21,19.10
2018,08,08,01,22,19.10
2018,08,08,01,23,19.10
2018,08,08,01,24,19.00
2018,08,08,01,25,19.00
2018,08,08,01,26,18.90
2018,08,08,01,27,18.90
2018,08,08,01,28,18.90
2018,08,08,01,29,18.90
2018,08,08,01,30,18.90
2018,08,08,01,31,18.80
2018,08,08,01,32,18.80
2018,08,08,01,33,18.80
2018,08,08,01,34,18.80
2018,08,08,01,35,18.80
2018,08,08,01,36,18.80
2018,08,08,01,37,18.80
2018,08,08,01,38,18.80
2018,08,08,01,39,18.80
2018,08,08,01,40,18.80
2018,08,08,01,41,18.70
2018,08,08,01,42,18.70
2018,08,08,01,43,18.70
2018,08,08,01,44,18.70
2018,08,08,01,45,18.70
2018,08,08,01,46,18.70
2018,08,08,01,47,18.70
2018,08,08,01,48,18.70
2018,08,08,01,49,18.70
2018,08,08,01,50,18.70
2018,08,08,01,51,18.70
2018,08,08,01,52,18.70
2018,08,08,01,53,18.70
2018,08,08,01,54,18.70
2018,08,08,01,55,18.70
2018,08,08,01,56,18.70
2018,08,08,01,57,18.60
2018,08,08,01,58,18.60
2018,08,08,01,59,18.60
2018,08,08,02,00,18.60
2018,08,08,02,01,18.60
2018,08,08,02,02,18.60
2018,08,08,02,03,18.60
2018,08,08,02,04,18.60
2018,08,08,02,05,18.60
2018,08,08,02,06,18.60
2018,08,08,02,07,18.60
2018,08,08,02,08,18.60
2018,08,08,02,09,18.60
2018,08,08,02,10,18.60
2018,08,08,02,11,18.60
2018,08,08,02,12,18.60
2018,08,08,02,13,18.60
2018,08,08,02,14,18.50
2018,08,08,02,15,18.50
2018,08,08,02,16,18.50
2018,08,08,02,17,18.40
2018,08,08,02,18,18.40
2018,08,08,02,19,18.40
2018,08,08,02,20,18.30
2018,08,08,02,21,18.30
2018,08,08,02,22,18.20
2018,08,08,02,23,18.20
2018,08,08,02,24,18.20
2018,08,08,02,25,18.10
2018,08,08,02,26,18.10
2018,08,08,02,27,18.10
2018,08,08,02,28,18.10
2018,08,08,02,29,18.00
2018,08,08,02,30,18.00
2018,08,08,02,31,17.90
2018,08,08,02,32,17.90
2018,08,08,02,33,17.90
2018,08,08,02,34,17.90
2018,08,08,02,35,17.90
2018,08,08,02,36,17.90
2018,08,08,02,37,17.90
2018,08,08,02,38,17.90
2018,08,08,02,39,17.90
2018,08,08,02,40,17.90
2018,08,08,02,41,17.90
2018,08,08,02,42,17.90
2018,08,08,02,43,17.90
2018,08,08,02,44,17.90
2018,08,08,02,45,17.90
2018,08,08,02,46,17.90
2018,08,08,02,47,17.90
2018,08,08,02,48,17.90
2018,08,08,02,49,17.90
2018,08,08,02,50,17.90
2018,08,08,02,51,17.90
2018,08,08,02,52,17.80
2018,08,08,02,53,17.80
2018,08,08,02,54,17.80
2018,08,08,02,55,17.80
2018,08,08,02,56,17.80
2018,08,08,02,57,17.70
2018,08,08,02,58,17.70
2018,08,08,02,59,17.70
2018,08,08,03,00,17.70
2018,08,08,03,01,17.70
2018,08,08,03,02,17.70
2018,08,08,03,03,17.70
2018,08,08,03,04,17.60
2018,08,08,03,05,17.60
2018,08,08,03,06,17.60
2018,08,08,03,07,17.60
2018,08,08,03,08,17.60
2018,08,08,03,09,17.60
2018,08,08,03,10,17.60
2018,08,08,03,11,17.60
2018,08,08,03,12,17.50
2018,08,08,03,13,17.50
2018,08,08,03,14,17.50
2018,08,08,03,15,17.50
2018,08,08,03,16,17.50
2018,08,08,03,17,17.40
2018,08,08,03,18,17.40
2018,08,08,03,19,17.40
2018,08,08,03,20,17.40
2018,08,08,03,21,17.40
2018,08,08,03,22,17.40
2018,08,08,03,23,17.40
2018,08,08,03,24,17.40
2018,08,08,03,25,17.40
2018,08,08,03,26,17.40
2018,08,08,03,27,17.40
2018,08,08,03,28,17.40
2018,08,08,03,29,17.30
2018,08,08,03,30,17.30
2018,08,08,03,31,17.30
2018,08,08,03,32,17.30
2018,08,08,03,33,17.30
2018,08,08,03,34,17.30
2018,08,08,03,35,17.30
2018,08,08,03,36,17.30
2018,08,08,03,37,17.30
2018,08,08,03,38,17.30
2018,08,08,03,39,17.30
2018,08,08,03,40,17.30
2018,08,08,03,41,17.30
2018,08,08,03,42,17.30
2018,08,08,03,43,17.30
2018,08,08,03,44,17.30
2018,08,08,03,45,17.30
2018,08,08,03,46,17.30
2018,08,08,03,47,17.30
2018,08,08,03,48,17.30
2018,08,08,03,49,17.30
2018,08,08,03,50,17.30
2018,08,08,03,51,17.30
2018,08,08,03,52,17.30
2018,08,08,03,53,17.20
2018,08,08,03,54,17.20
2018,08,08,03,55,17.20
2018,08,08,03,56,17.20
2018,08,08,03,57,17.20
2018,08,08,03,58,17.20
2018,08,08,03,59,17.20
2018,08,08,04,00,17.20
2018,08,08,04,01,17.20
2018,08,08,04,02,17.20
2018,08,08,04,03,17.20
2018,08,08,04,04,17.20
2018,08,08,04,05,17.20
2018,08,08,04,06,17.20
2018,08,08,04,07,17.20
2018,08,08,04,08,17.20
2018,08,08,04,09,17.20
2018,08,08,04,10,17.20
2018,08,08,04,11,17.20
2018,08,08,04,12,17.30
2018,08,08,04,13,17.40
2018,08,08,04,14,17.60
2018,08,08,04,15,17.70
2018,08,08,04,16,17.80
2018,08,08,04,17,17.90
2018,08,08,04,18,18.00
2018,08,08,04,19,18.00
2018,08,08,04,20,18.10
2018,08,08,04,21,18.10
2018,08,08,04,22,18.10
2018,08,08,04,23,18.10
2018,08,08,04,24,18.10
2018,08,08,04,25,18.10
2018,08,08,04,26,18.10
2018,08,08,04,27,18.10
2018,08,08,04,28,18.10
2018,08,08,04,29,18.20
2018,08,08,04,30,18.20
2018,08,08,04,31,18.20
2018,08,08,04,32,18.10
2018,08,08,04,33,18.10
2018,08,08,04,34,18.10
2018,08,08,04,35,18.00
2018,08,08,04,36,17.90
2018,08,08,04,37,17.90
2018,08,08,04,38,17.80
2018,08,08,04,39,17.80
2018,08,08,04,40,17.70
2018,08,08,04,41,17.70
2018,08,08,04,42,17.60
2018,08,08,04,43,17.60
2018,08,08,04,44,17.60
2018,08,08,04,45,17.60
2018,08,08,04,46,17.60
2018,08,08,04,47,17.60
2018,08,08,04,48,17.60
2018,08,08,04,49,17.50
2018,08,08,04,50,17.50
2018,08,08,04,51,17.50
2018,08,08,04,52,17.50
2018,08,08,04,53,17.40
2018,08,08,04,54,17.40
2018,08,08,04,55,17.40
2018,08,08,04,56,17.40
2018,08,08,04,57,17.40
2018,08,08,04,58,17.40
2018,08,08,04,59,17.40
2018,08,08,05,00,17.40
2018,08,08,05,01,17.40
2018,08,08,05,02,17.40
2018,08,08,05,03,17.40
2018,08,08,05,04,17.40
2018,08,08,05,05,17.40
2018,08,08,05,06,17.30
2018,08,08,05,07,17.30
2018,08,08,05,08,17.30
2018,08,08,05,09,17.30
2018,08,08,05,10,17.20
2018,08,08,05,11,17.20
2018,08,08,05,12,17.20
2018,08,08,05,13,17.20
2018,08,08,05,14,17.20
2018,08,08,05,15,17.20
2018,08,08,05,16,17.20
2018,08,08,05,17,17.20
2018,08,08,05,18,17.20
2018,08,08,05,19,17.20
2018,08,08,05,20,17.20
2018,08,08,05,21,17.20
2018,08,08,05,22,17.10
2018,08,08,05,23,17.10
2018,08,08,05,24,17.10
2018,08,08,05,25,17.10
2018,08,08,05,26,17.00
2018,08,08,05,27,17.00
2018,08,08,05,28,17.00
2018,08,08,05,29,16.90
2018,08,08,05,30,17.00
2018,08,08,05,31,17.10
2018,08,08,05,32,17.10
2018,08,08,05,33,17.10
2018,08,08,05,34,17.20
2018,08,08,05,35,17.20
2018,08,08,05,36,17.20
2018,08,08,05,37,17.10
2018,08,08,05,38,17.10
2018,08,08,05,39,17.10
2018,08,08,05,40,17.10
2018,08,08,05,41,17.00
2018,08,08,05,42,17.00
2018,08,08,05,43,17.00
2018,08,08,05,44,17.00
2018,08,08,05,45,17.00
2018,08,08,05,46,17.00
2018,08,08,05,47,16.80
2018,08,08,05,48,16.80
2018,08,08,05,49,16.80
2018,08,08,05,50,16.80
2018,08,08,05,51,16.90
2018,08,08,05,52,17.00
2018,08,08,05,53,17.00
2018,08,08,05,54,17.10
2018,08,08,05,55,17.10
2018,08,08,05,56,17.10
2018,08,08,05,57,17.10
2018,08,08,05,58,17.10
2018,08,08,05,59,17.00
2018,08,08,06,00,17.00
2018,08,08,06,01,16.90
2018,08,08,06,02,16.80
2018,08,08,06,03,16.80
2018,08,08,06,04,16.70
2018,08,08,06,05,16.70
2018,08,08,06,06,16.70
2018,08,08,06,07,16.60
2018,08,08,06,08,16.60
2018,08,08,06,09,16.50
2018,08,08,06,10,16.50
2018,08,08,06,11,16.40
2018,08,08,06,12,16.40
2018,08,08,06,13,16.40
2018,08,08,06,14,16.40
2018,08,08,06,15,16.30
2018,08,08,06,16,16.30
2018,08,08,06,17,16.40
2018,08,08,06,18,16.50
2018,08,08,06,19,16.60
2018,08,08,06,20,16.70
2018,08,08,06,21,16.80
2018,08,08,06,22,16.90
2018,08,08,06,23,16.90
2018,08,08,06,24,16.90
2018,08,08,06,25,17.00
2018,08,08,06,26,17.00
2018,08,08,06,27,17.00
2018,08,08,06,28,17.00
2018,08,08,06,29,17.10
2018,08,08,06,30,17.10
2018,08,08,06,31,17.10
2018,08,08,06,32,17.10
2018,08,08,06,33,17.20
2018,08,08,06,34,17.20
2018,08,08,06,35,17.20
2018,08,08,06,36,17.30
2018,08,08,06,37,17.30
2018,08,08,06,38,17.40
2018,08,08,06,39,17.40
2018,08,08,06,40,17.50
2018,08,08,06,41,17.50
2018,08,08,06,42,17.60
2018,08,08,06,43,17.60
2018,08,08,06,44,17.60
2018,08,08,06,45,17.60
2018,08,08,06,46,17.70
2018,08,08,06,47,17.70
2018,08,08,06,48,17.70
2018,08,08,06,49,17.90
2018,08,08,06,50,18.00
2018,08,08,06,51,18.10
2018,08,08,06,52,18.20
2018,08,08,06,53,18.40
2018,08,08,06,54,18.50
2018,08,08,06,55,18.60
2018,08,08,06,56,18.60
2018,08,08,06,57,18.70
2018,08,08,06,58,18.70
2018,08,08,06,59,18.70
2018,08,08,07,00,18.80
2018,08,08,07,01,18.80
2018,08,08,07,02,18.90
2018,08,08,07,03,19.00
2018,08,08,07,04,19.00
2018,08,08,07,05,19.10
2018,08,08,07,06,19.20
2018,08,08,07,07,19.30
2018,08,08,07,08,19.40
2018,08,08,07,09,19.40
2018,08,08,07,10,19.40
2018,08,08,07,11,19.40
2018,08,08,07,12,19.40
2018,08,08,07,13,19.40
2018,08,08,07,14,19.40
2018,08,08,07,15,19.50
2018,08,08,07,16,19.50
2018,08,08,07,17,19.50
2018,08,08,07,18,19.40
2018,08,08,07,19,19.40
2018,08,08,07,20,19.40
2018,08,08,07,21,19.40
2018,08,08,07,22,19.30
2018,08,08,07,23,19.30
2018,08,08,07,24,19.30
2018,08,08,07,25,19.20
2018,08,08,07,26,19.20
2018,08,08,07,27,19.10
2018,08,08,07,28,19.10
2018,08,08,07,29,19.10
2018,08,08,07,30,19.10
2018,08,08,07,31,19.10
2018,08,08,07,32,19.10
2018,08,08,07,33,19.10
2018,08,08,07,34,19.10
2018,08,08,07,35,19.20
2018,08,08,07,36,19.20
2018,08,08,07,37,19.30
2018,08,08,07,38,19.50
2018,08,08,07,39,19.70
2018,08,08,07,40,19.90
2018,08,08,07,41,20.00
2018,08,08,07,42,20.10
2018,08,08,07,43,20.20
2018,08,08,07,44,20.30
2018,08,08,07,45,20.30
2018,08,08,07,46,20.30
2018,08,08,07,47,20.40
2018,08,08,07,48,20.40
2018,08,08,07,49,20.40
2018,08,08,07,50,20.40
2018,08,08,07,51,20.40
2018,08,08,07,52,20.40
2018,08,08,07,53,20.40
2018,08,08,07,54,20.40
2018,08,08,07,55,20.40
2018,08,08,07,56,20.40
2018,08,08,07,57,20.30
2018,08,08,07,58,20.30
2018,08,08,07,59,20.30
2018,08,08,08,00,20.30
2018,08,08,08,01,20.30
2018,08,08,08,02,20.30
2018,08,08,08,03,20.40
2018,08,08,08,04,20.40
2018,08,08,08,05,20.40
2018,08,08,08,06,20.40
2018,08,08,08,07,20.50
2018,08,08,08,08,20.50
2018,08,08,08,09,20.60
2018,08,08,08,10,20.60
2018,08,08,08,11,20.70
2018,08,08,08,12,20.70
2018,08,08,08,13,20.70
2018,08,08,08,14,20.70
2018,08,08,08,15,20.80
2018,08,08,08,16,20.80
2018,08,08,08,17,20.80
2018,08,08,08,18,20.90
2018,08,08,08,19,20.90
2018,08,08,08,20,20.90
2018,08,08,08,21,20.90
2018,08,08,08,22,21.00
2018,08,08,08,23,21.10
2018,08,08,08,24,21.20
2018,08,08,08,25,21.20
2018,08,08,08,26,21.30
2018,08,08,08,27,21.40
2018,08,08,08,28,21.40
2018,08,08,08,29,21.50
2018,08,08,08,30,21.60
2018,08,08,08,31,21.70
2018,08,08,08,32,21.70
2018,08,08,08,33,21.80
2018,08,08,08,34,21.80
2018,08,08,08,35,21.90
2018,08,08,08,36,22.00
2018,08,08,08,37,22.10
2018,08,08,08,38,22.20
2018,08,08,08,39,22.30
2018,08,08,08,40,22.40
2018,08,08,08,41,22.60
2018,08,08,08,42,22.70
2018,08,08,08,43,22.80
2018,08,08,08,44,22.90
2018,08,08,08,45,23.10
2018,08,08,08,46,23.20
2018,08,08,08,47,23.40
2018,08,08,08,48,23.50
2018,08,08,08,49,23.70
2018,08,08,08,50,23.80
2018,08,08,08,51,23.90
2018,08,08,08,52,24.00
2018,08,08,08,53,24.10
2018,08,08,08,54,24.20
2018,08,08,08,55,24.20
2018,08,08,08,56,24.30
2018,08,08,08,57,24.30
2018,08,08,08,58,24.40
2018,08,08,08,59,24.50
2018,08,08,09,00,24.70
2018,08,08,09,01,24.90
2018,08,08,09,02,25.20
2018,08,08,09,03,25.40
2018,08,08,09,04,25.50
2018,08,08,09,05,25.60
2018,08,08,09,06,25.80
2018,08,08,09,07,25.80
2018,08,08,09,08,25.80
2018,08,08,09,09,25.80
2018,08,08,09,10,25.80
2018,08,08,09,11,25.80
2018,08,08,09,12,25.80
2018,08,08,09,13,25.80
2018,08,08,09,14,25.70
2018,08,08,09,15,25.60
2018,08,08,09,16,25.60
2018,08,08,09,17,25.50
2018,08,08,09,18,25.40
2018,08,08,09,19,25.30
2018,08,08,09,20,25.20
2018,08,08,09,21,25.20
2018,08,08,09,22,25.10
2018,08,08,09,23,25.10
2018,08,08,09,24,25.00
2018,08,08,09,25,25.00
2018,08,08,09,26,25.00
2018,08,08,09,27,25.00
2018,08,08,09,28,25.00
2018,08,08,09,29,25.00
2018,08,08,09,30,25.10
2018,08,08,09,31,25.10
2018,08,08,09,32,25.10
2018,08,08,09,33,25.20
2018,08,08,09,34,25.20
2018,08,08,09,35,25.20
2018,08,08,09,36,25.20
2018,08,08,09,37,25.20
2018,08,08,09,38,25.20
2018,08,08,09,39,25.30
2018,08,08,09,40,25.30
2018,08,08,09,41,25.40
2018,08,08,09,42,25.40
2018,08,08,09,43,25.60
2018,08,08,09,44,25.80
2018,08,08,09,45,25.90
2018,08,08,09,46,26.10
2018,08,08,09,47,26.00
2018,08,08,09,48,26.00
2018,08,08,09,49,25.90
2018,08,08,09,50,25.90
2018,08,08,09,51,25.90
2018,08,08,09,52,25.90
2018,08,08,09,53,25.90
2018,08,08,09,54,25.90
2018,08,08,09,55,26.00
2018,08,08,09,56,26.20
2018,08,08,09,57,26.30
2018,08,08,09,58,26.50
2018,08,08,09,59,26.60
2018,08,08,10,00,26.70
2018,08,08,10,01,26.70
2018,08,08,10,02,26.60
2018,08,08,10,03,26.60
2018,08,08,10,04,26.60
2018,08,08,10,05,26.50
2018,08,08,10,06,26.50
2018,08,08,10,07,26.50
2018,08,08,10,08,26.50
2018,08,08,10,09,26.40
2018,08,08,10,10,26.40
2018,08,08,10,11,26.30
2018,08,08,10,12,26.30
2018,08,08,10,13,26.30
2018,08,08,10,14,26.40
2018,08,08,10,15,26.50
2018,08,08,10,16,26.70
2018,08,08,10,17,26.70
2018,08,08,10,18,26.70
2018,08,08,10,19,26.70
2018,08,08,10,20,26.80
2018,08,08,10,21,26.90
2018,08,08,10,22,26.80
2018,08,08,10,23,26.80
2018,08,08,10,24,26.70
2018,08,08,10,25,26.50
2018,08,08,10,26,26.50
2018,08,08,10,27,26.50
2018,08,08,10,28,26.60
2018,08,08,10,29,26.50
2018,08,08,10,30,26.60
2018,08,08,10,31,26.60
2018,08,08,10,32,26.60
2018,08,08,10,33,26.70
2018,08,08,10,34,26.80
2018,08,08,10,35,26.80
2018,08,08,10,36,26.90
2018,08,08,10,37,27.00
2018,08,08,10,38,27.10
2018,08,08,10,39,27.10
2018,08,08,10,40,27.10
2018,08,08,10,41,27.00
2018,08,08,10,42,26.90
2018,08,08,10,43,26.90
2018,08,08,10,44,26.90
2018,08,08,10,45,26.90
2018,08,08,10,46,26.90
2018,08,08,10,47,26.90
2018,08,08,10,48,26.90
2018,08,08,10,49,26.90
2018,08,08,10,50,27.00
2018,08,08,10,51,27.00
2018,08,08,10,52,27.00
2018,08,08,10,53,27.10
2018,08,08,10,54,27.10
2018,08,08,10,55,27.10
2018,08,08,10,56,27.00
2018,08,08,10,57,26.90
2018,08,08,10,58,26.80
2018,08,08,10,59,26.60
2018,08,08,11,00,26.60
2018,08,08,11,01,26.60
2018,08,08,11,02,26.60
2018,08,08,11,03,26.60
2018,08,08,11,04,26.60
2018,08,08,11,05,26.70
2018,08,08,11,06,26.70
2018,08,08,11,07,26.70
2018,08,08,11,08,26.80
2018,08,08,11,09,26.90
2018,08,08,11,10,27.10
2018,08,08,11,11,27.30
2018,08,08,11,12,27.40
2018,08,08,11,13,27.60
2018,08,08,11,14,27.60
2018,08,08,11,15,27.60
2018,08,08,11,16,27.60
2018,08,08,11,17,27.50
2018,08,08,11,18,27.40
2018,08,08,11,19,27.30
2018,08,08,11,20,27.20
2018,08,08,11,21,27.10
2018,08,08,11,22,27.10
2018,08,08,11,23,27.10
2018,08,08,11,24,27.10
2018,08,08,11,25,27.10
2018,08,08,11,26,27.10
2018,08,08,11,27,27.20
2018,08,08,11,28,27.30
2018,08,08,11,29,27.30
2018,08,08,11,30,27.40
2018,08,08,11,31,27.40
2018,08,08,11,32,27.50
2018,08,08,11,33,27.50
2018,08,08,11,34,27.70
2018,08,08,11,35,27.70
2018,08,08,11,36,27.60
2018,08,08,11,37,27.50
2018,08,08,11,38,27.40
2018,08,08,11,39,27.30
2018,08,08,11,40,27.30
2018,08,08,11,41,27.30
2018,08,08,11,42,27.30
2018,08,08,11,43,27.30
2018,08,08,11,44,27.20
2018,08,08,11,45,27.00
2018,08,08,11,46,26.90
2018,08,08,11,47,26.90
2018,08,08,11,48,27.00
2018,08,08,11,49,27.10
2018,08,08,11,50,27.30
2018,08,08,11,51,27.30
2018,08,08,11,52,27.30
2018,08,08,11,53,27.40
2018,08,08,11,54,27.40
2018,08,08,11,55,27.50
2018,08,08,11,56,27.50
2018,08,08,11,57,27.60
2018,08,08,11,58,27.70
2018,08,08,11,59,27.80
2018,08,08,12,00,27.90
2018,08,08,12,01,27.90
2018,08,08,12,02,27.80
2018,08,08,12,03,27.90
2018,08,08,12,04,28.00
2018,08,08,12,05,28.00
2018,08,08,12,06,28.10
2018,08,08,12,07,28.20
2018,08,08,12,08,28.40
2018,08,08,12,09,28.50
2018,08,08,12,10,28.60
2018,08,08,12,11,28.60
2018,08,08,12,12,28.60
2018,08,08,12,13,28.50
2018,08,08,12,14,28.50
2018,08,08,12,15,28.40
2018,08,08,12,16,28.30
2018,08,08,12,17,28.30
2018,08,08,12,18,28.30
2018,08,08,12,19,28.20
2018,08,08,12,20,28.20
2018,08,08,12,21,28.20
2018,08,08,12,22,28.20
2018,08,08,12,23,28.30
2018,08,08,12,24,28.40
2018,08,08,12,25,28.50
2018,08,08,12,26,28.70
2018,08,08,12,27,28.70
2018,08,08,12,28,28.80
2018,08,08,12,29,28.80
2018,08,08,12,30,28.80
2018,08,08,12,31,28.60
2018,08,08,12,32,28.40
2018,08,08,12,33,28.40
2018,08,08,12,34,28.40
2018,08,08,12,35,28.50
2018,08,08,12,36,28.50
2018,08,08,12,37,28.50
2018,08,08,12,38,28.50
2018,08,08,12,39,28.60
2018,08,08,12,40,28.80
2018,08,08,12,41,28.80
2018,08,08,12,42,28.90
2018,08,08,12,43,28.80
2018,08,08,12,44,28.80
2018,08,08,12,45,28.90
2018,08,08,12,46,29.00
2018,08,08,12,47,29.10
2018,08,08,12,48,29.10
2018,08,08,12,49,29.10
2018,08,08,12,50,29.00
2018,08,08,12,51,28.90
2018,08,08,12,52,28.90
2018,08,08,12,53,28.90
2018,08,08,12,54,29.00
2018,08,08,12,55,29.10
2018,08,08,12,56,29.20
2018,08,08,12,57,29.30
2018,08,08,12,58,29.10
2018,08,08,12,59,29.00
2018,08,08,13,00,28.90
2018,08,08,13,01,28.80
2018,08,08,13,02,28.90
2018,08,08,13,03,28.90
2018,08,08,13,04,28.90
2018,08,08,13,05,28.90
2018,08,08,13,06,28.90
2018,08,08,13,07,28.90
2018,08,08,13,08,28.90
2018,08,08,13,09,28.80
2018,08,08,13,10,28.80
2018,08,08,13,11,28.80
2018,08,08,13,12,28.90
2018,08,08,13,13,29.10
2018,08,08,13,14,29.20
2018,08,08,13,15,29.30
2018,08,08,13,16,29.30
2018,08,08,13,17,29.30
2018,08,08,13,18,29.30
2018,08,08,13,19,29.10
2018,08,08,13,20,29.00
2018,08,08,13,21,28.90
2018,08,08,13,22,28.90
2018,08,08,13,23,29.00
2018,08,08,13,24,29.10
2018,08,08,13,25,29.20
2018,08,08,13,26,29.20
2018,08,08,13,27,29.20
2018,08,08,13,28,29.30
2018,08,08,13,29,29.40
2018,08,08,13,30,29.40
2018,08,08,13,31,29.30
2018,08,08,13,32,29.30
2018,08,08,13,33,29.20
2018,08,08,13,34,29.30
2018,08,08,13,35,29.50
2018,08,08,13,36,29.70
2018,08,08,13,37,29.80
2018,08,08,13,38,29.70
2018,08,08,13,39,29.60
2018,08,08,13,40,29.50
2018,08,08,13,41,29.40
2018,08,08,13,42,29.30
2018,08,08,13,43,29.20
2018,08,08,13,44,29.30
2018,08,08,13,45,29.40
2018,08,08,13,46,29.60
2018,08,08,13,47,29.70
2018,08,08,13,48,29.70
2018,08,08,13,49,29.90
2018,08,08,13,50,30.00
2018,08,08,13,51,30.00
2018,08,08,13,52,29.90
2018,08,08,13,53,29.80
2018,08,08,13,54,29.80
2018,08,08,13,55,29.80
2018,08,08,13,56,29.80
2018,08,08,13,57,29.70
2018,08,08,13,58,29.50
2018,08,08,13,59,29.40
2018,08,08,14,00,29.30
2018,08,08,14,01,29.30
2018,08,08,14,02,29.30
2018,08,08,14,03,29.30
2018,08,08,14,04,29.40
2018,08,08,14,05,29.50
2018,08,08,14,06,29.60
2018,08,08,14,07,29.80
2018,08,08,14,08,30.00
2018,08,08,14,09,30.20
2018,08,08,14,10,30.50
2018,08,08,14,11,30.70
2018,08,08,14,12,30.90
2018,08,08,14,13,30.90
2018,08,08,14,14,30.80
2018,08,08,14,15,30.80
2018,08,08,14,16,30.70
2018,08,08,14,17,30.70
2018,08,08,14,18,30.60
2018,08,08,14,19,30.50
2018,08,08,14,20,30.40
2018,08,08,14,21,30.30
2018,08,08,14,22,30.30
2018,08,08,14,23,30.40
2018,08,08,14,24,30.50
2018,08,08,14,25,30.60
2018,08,08,14,26,30.70
2018,08,08,14,27,30.80
2018,08,08,14,28,30.90
2018,08,08,14,29,31.10
2018,08,08,14,30,31.20
2018,08,08,14,31,31.30
2018,08,08,14,32,31.40
2018,08,08,14,33,31.40
2018,08,08,14,34,31.40
2018,08,08,14,35,31.40
2018,08,08,14,36,31.30
2018,08,08,14,37,31.20
2018,08,08,14,38,31.20
2018,08,08,14,39,31.10
2018,08,08,14,40,31.10
2018,08,08,14,41,31.00
2018,08,08,14,42,31.00
2018,08,08,14,43,30.90
2018,08,08,14,44,30.70
2018,08,08,14,45,30.60
2018,08,08,14,46,30.50
2018,08,08,14,47,30.60
2018,08,08,14,48,30.50
2018,08,08,14,49,30.50
2018,08,08,14,50,30.50
2018,08,08,14,51,30.60
2018,08,08,14,52,30.80
2018,08,08,14,53,31.00
2018,08,08,14,54,31.10
2018,08,08,14,55,31.20
2018,08,08,14,56,31.30
2018,08,08,14,57,31.30
2018,08,08,14,58,31.30
2018,08,08,14,59,31.30
2018,08,08,15,00,31.30
2018,08,08,15,01,31.30
2018,08,08,15,02,31.30
2018,08,08,15,03,31.30
2018,08,08,15,04,31.30
2018,08,08,15,05,31.30
2018,08,08,15,06,31.40
2018,08,08,15,07,31.50
2018,08,08,15,08,31.60
2018,08,08,15,09,31.60
2018,08,08,15,10,31.60
2018,08,08,15,11,31.60
2018,08,08,15,12,31.60
2018,08,08,15,13,31.50
2018,08,08,15,14,31.50
2018,08,08,15,15,31.50
2018,08,08,15,16,31.50
2018,08,08,15,17,31.40
2018,08,08,15,18,31.40
2018,08,08,15,19,31.40
2018,08,08,15,20,31.50
2018,08,08,15,21,31.60
2018,08,08,15,22,31.70
2018,08,08,15,23,31.70
2018,08,08,15,24,31.80
2018,08,08,15,25,31.80
2018,08,08,15,26,31.80
2018,08,08,15,27,31.90
2018,08,08,15,28,31.80
2018,08,08,15,29,31.80
2018,08,08,15,30,31.70
2018,08,08,15,31,31.70
2018,08,08,15,32,31.60
2018,08,08,15,33,31.50
2018,08,08,15,34,31.40
2018,08,08,15,35,31.50
2018,08,08,15,36,31.60
2018,08,08,15,37,31.80
2018,08,08,15,38,31.90
2018,08,08,15,39,32.00
2018,08,08,15,40,32.10
2018,08,08,15,41,32.10
2018,08,08,15,42,32.10
2018,08,08,15,43,32.10
2018,08,08,15,44,32.10
2018,08,08,15,45,32.20
2018,08,08,15,46,32.20
2018,08,08,15,47,32.20
2018,08,08,15,48,32.20
2018,08,08,15,49,32.30
2018,08,08,15,50,32.30
2018,08,08,15,51,32.30
2018,08,08,15,52,32.30
2018,08,08,15,53,32.30
2018,08,08,15,54,32.30
2018,08,08,15,55,32.30
2018,08,08,15,56,32.40
2018,08,08,15,57,32.40
2018,08,08,15,58,32.50
2018,08,08,15,59,32.60
2018,08,08,16,00,32.50
2018,08,08,16,01,32.40
2018,08,08,16,02,32.40
2018,08,08,16,03,32.40
2018,08,08,16,04,32.30
2018,08,08,16,05,32.20
2018,08,08,16,06,32.10
2018,08,08,16,07,32.00
2018,08,08,16,08,31.90
2018,08,08,16,09,31.80
2018,08,08,16,10,31.70
2018,08,08,16,11,31.60
2018,08,08,16,12,31.50
2018,08,08,16,13,31.50
2018,08,08,16,14,31.60
2018,08,08,16,15,31.70
2018,08,08,16,16,31.80
2018,08,08,16,17,31.90
2018,08,08,16,18,31.90
2018,08,08,16,19,32.00
2018,08,08,16,20,32.00
2018,08,08,16,21,32.10
2018,08,08,16,22,32.10
2018,08,08,16,23,32.10
2018,08,08,16,24,32.20
2018,08,08,16,25,32.30
2018,08,08,16,26,32.40
2018,08,08,16,27,32.40
2018,08,08,16,28,32.40
2018,08,08,16,29,32.30
2018,08,08,16,30,32.30
2018,08,08,16,31,32.40
2018,08,08,16,32,32.40
2018,08,08,16,33,32.50
2018,08,08,16,34,32.60
2018,08,08,16,35,32.70
2018,08,08,16,36,32.80
2018,08,08,16,37,32.80
2018,08,08,16,38,32.70
2018,08,08,16,39,32.70
2018,08,08,16,40,32.70
2018,08,08,16,41,32.60
2018,08,08,16,42,32.60
2018,08,08,16,43,32.60
2018,08,08,16,44,32.70
2018,08,08,16,45,32.70
2018,08,08,16,46,32.80
2018,08,08,16,47,32.80
2018,08,08,16,48,32.80
2018,08,08,16,49,32.70
2018,08,08,16,50,32.60
2018,08,08,16,51,32.50
2018,08,08,16,52,32.50
2018,08,08,16,53,32.40
2018,08,08,16,54,32.40
2018,08,08,16,55,32.40
2018,08,08,16,56,32.40
2018,08,08,16,57,32.40
2018,08,08,16,58,32.40
2018,08,08,16,59,32.40
2018,08,08,17,00,32.50
2018,08,08,17,01,32.50
2018,08,08,17,02,32.50
2018,08,08,17,03,32.50
2018,08,08,17,04,32.60
2018,08,08,17,05,32.60
2018,08,08,17,06,32.60
2018,08,08,17,07,32.60
2018,08,08,17,08,32.60
2018,08,08,17,09,32.60
2018,08,08,17,10,32.60
2018,08,08,17,11,32.60
2018,08,08,17,12,32.60
2018,08,08,17,13,32.60
2018,08,08,17,14,32.60
2018,08,08,17,15,32.60
2018,08,08,17,16,32.50
2018,08,08,17,17,32.50
2018,08,08,17,18,32.50
2018,08,08,17,19,32.50